Regional Weather Roundup
Issued by NWS

Home | Current Version | Previous Version | Graphics & Text | Print | Product List | Glossary On
Versions: 1 2 3 4 5 6 7 8 9 10 11 12 13 14 15 16 17 18 19 20 21 22 23 24 25 26 27 28 29 30 31 32 33 34 35 36 37 38 39 40 41 42 43 44 45 46 47 48 49 50
000
ASUS45 KSLC 011410
RWRUT

UTAH REGIONAL WEATHER ROUNDUP
NATIONAL WEATHER SERVICE SALT LAKE CITY UT
800 AM MDT WED JUL 01 2015

UTZ001>011-023>025-011500-

NORTHERN UTAH

CITY           SKY/WX    TMP DP  RH WIND       PRES   REMARKS
BRIGHAM CITY   MOSUNNY   73  54  52 CALM      30.10R
HILL AFB       PTSUNNY   72  55  53 E15       30.12S
LOGAN          MOSUNNY   70  58  65 W6        30.11S
OGDEN          PTSUNNY   74  55  51 S7        30.10R
PROVO AIRPORT  CLOUDY    73  55  53 CALM      30.12S
SALT LAKE CITY PTSUNNY   80  53  39 E3        30.07S
VERNAL         CLOUDY    71  55  56 CALM      30.16R
WENDOVER       MOSUNNY   79  50  36 NE5       30.10R
HEBER CITY     PTSUNNY   68  52  56 CALM      30.21S
WEST JORDAN    SUNNY     79  54  41 CALM      30.12R

$$

UTZ012>022-026-027-011500-

SOUTHERN/CENTRAL UTAH

CITY           SKY/WX    TMP DP  RH WIND       PRES   REMARKS
BLANDING       CLOUDY    74  46  36 N3        30.25S
BRYCE CANYON   MOSUNNY   58  48  69 W7        30.35R
CEDAR CITY     MOSUNNY   67  47  48 SW5       30.17S
DELTA          MOSUNNY   72  55  54 MISG      30.12S
HANKSVILLE     PTSUNNY   77  46  33 CALM      30.08R
MILFORD        MOSUNNY   74  50  42 SE7       30.13R
MOAB/CYNLANDS  SUNNY     82  47  29 CALM      30.03F
PRICE          CLOUDY    76  47  35 SW5       30.17R
ST GEORGE      PTSUNNY   88  55  33 SW16      29.99R
KANAB          SUNNY     70  46  43 CALM      30.18R

$$

REGIONAL REPORTS     COLORADO/ARIZONA

CITY           SKY/WX    TMP DP  RH WIND       PRES   REMARKS
CRAIG, CO      MOSUNNY   62  50  64 CALM      30.26S
GRAND JUNCTION CLOUDY    73  47  39 SE8       30.10S
RIFLE          PTSUNNY   69  48  47 CALM      30.19S
MONTROSE       PTSUNNY   68  49  50 S6        30.21S
CORTEZ         SUNNY     77  48  35 NW3       30.18F
PAGE, AZ       SUNNY     84  44  24 CALM      30.02R
GRAND CANYON   SUNNY     66  57  72 SW9       30.28R
KINGMAN        SUNNY     78  56  46 SE6       30.07R
FLAGSTAFF      SUNNY     64  56  75 W6        30.30S

$$

REGIONAL REPORTS    NEVADA/IDAHO/WYOMING

CITY           SKY/WX    TMP DP  RH WIND       PRES   REMARKS
LAS VEGAS, NV  PTSUNNY   91  54  28 SW13      29.89R
ELY            PTSUNNY   58  51  78 S6        30.27R
ELKO           MOSUNNY   66  54  65 E6        30.19R
POCATELLO, ID  SUNNY     71  58  63 CALM      30.11R
BURLEY         MOSUNNY   72  56  57 S3        30.09R
EVANSTON, WY   MOSUNNY   67  49  52 S5        30.30S
ROCK SPRINGS   MOSUNNY   66  54  65 CALM      30.27S
KEMMERER       MOSUNNY   64  46  52 NW6       30.32R

$$


USA.gov is the U.S. government's official web portal to all federal, state and local government web resources and services.